TimeEST,TemperatureF,Dew PointF,Humidity,Sea Level PressureIn,VisibilityMPH,Wind Direction,Wind SpeedMPH,Gust SpeedMPH,PrecipitationIn,Events,Conditions,WindDirDegrees,DateUTC
12:54 AM,25.0,8.1,49,29.89,10.0,WNW,10.4,18.4,0.00,,Clear,300,2013-01-22 05:54:00
1:54 AM,24.1,9.0,53,29.92,10.0,WNW,9.2,19.6,N/A,,Clear,290,2013-01-22 06:54:00
2:54 AM,23.0,8.1,53,29.94,10.0,WNW,8.1,19.6,N/A,,Partly Cloudy,290,2013-01-22 07:54:00
3:54 AM,21.0,1.0,42,29.97,10.0,West,13.8,24.2,N/A,,Clear,280,2013-01-22 08:54:00
4:54 AM,19.9,1.0,44,30.00,10.0,WNW,15.0,25.3,N/A,,Clear,290,2013-01-22 09:54:00
5:54 AM,19.0,-0.0,43,30.02,10.0,WNW,15.0,21.9,N/A,,Clear,290,2013-01-22 10:54:00
6:54 AM,18.0,-0.9,44,30.06,10.0,WNW,10.4,23.0,N/A,,Clear,290,2013-01-22 11:54:00
7:54 AM,18.0,-0.0,45,30.08,10.0,West,17.3,26.5,N/A,,Clear,280,2013-01-22 12:54:00
8:54 AM,18.0,-0.9,44,30.11,10.0,WNW,13.8,24.2,N/A,,Clear,290,2013-01-22 13:54:00
9:54 AM,19.0,-0.0,43,30.13,10.0,WNW,9.2,23.0,N/A,,Clear,300,2013-01-22 14:54:00
10:54 AM,19.9,-0.0,42,30.13,10.0,NW,15.0,25.3,N/A,,Clear,310,2013-01-22 15:54:00
11:54 AM,19.0,-2.9,38,30.12,10.0,West,12.7,21.9,N/A,,Scattered Clouds,280,2013-01-22 16:54:00
12:54 PM,19.9,-5.1,33,30.10,10.0,West,19.6,27.6,N/A,,Mostly Cloudy,260,2013-01-22 17:54:00
1:54 PM,21.0,-4.0,33,30.10,10.0,WNW,13.8,24.2,N/A,,Clear,300,2013-01-22 18:54:00
2:54 PM,21.0,-5.1,32,30.11,10.0,WNW,10.4,19.6,N/A,,Clear,290,2013-01-22 19:54:00
3:54 PM,19.9,-4.0,35,30.13,10.0,NW,10.4,19.6,N/A,,Clear,310,2013-01-22 20:54:00
4:54 PM,19.0,-4.0,36,30.15,10.0,WNW,12.7,18.4,N/A,,Scattered Clouds,300,2013-01-22 21:54:00
5:54 PM,18.0,-5.1,36,30.18,10.0,Variable,6.9,-,N/A,,Clear,0,2013-01-22 22:54:00
6:54 PM,18.0,-5.1,36,30.21,10.0,WNW,11.5,19.6,N/A,,Clear,290,2013-01-22 23:54:00
7:54 PM,17.1,-5.1,37,30.23,10.0,WNW,12.7,19.6,N/A,,Clear,300,2013-01-23 00:54:00
8:54 PM,16.0,-6.0,38,30.24,10.0,WNW,13.8,21.9,N/A,,Clear,290,2013-01-23 01:54:00
9:54 PM,16.0,-6.0,38,30.26,10.0,WNW,8.1,19.6,N/A,,Clear,290,2013-01-23 02:54:00
10:54 PM,15.1,-5.1,41,30.28,10.0,WNW,8.1,-,N/A,,Partly Cloudy,290,2013-01-23 03:54:00
11:54 PM,14.0,-6.0,41,30.27,10.0,WNW,6.9,19.6,N/A,,Clear,300,2013-01-23 04:54:00